sat.trackr.live / text

‹ back to catalog

CENTISPACE-1 S15

NORAD 62584 · 2025-007K

PAYLOAD ACTIVE UNKNOWN

§ Identity

Operator
Country
PRC
Launch date
2025-01-13
Launch site
YSLA
Launch vehicle
Mass (kg)
RCS (m²)

External: N2YO · Heavens-Above · Gunter

§ Orbital elements

Epoch: 2026-09-22T19:01:07.720608Z

Period
104.30 min
Inclination
54.9873°
Eccentricity
0.0011602
Mean motion
13.80585043 rev/d
Perigee alt
953.3 km
Apogee alt
970.3 km
Semi-major
7,339.9 km
B*
8.4663e-5
RAAN
311.2934°
Arg perigee
266.0354°
Mean anomaly
93.9276°
Rev number
8,821

§ Raw data

CENTISPACE-1 S151 62584U 25007K   26265.79245047 -.00000051  00000+0  84663-4 0  99952 62584  54.9873 311.2934 0011602 266.0354  93.9276 13.80585043 88214

JSON: /api/v1/satellites/62584 · /tle

For live sub-satellite position, see the globe view (requires WebGL).

§ Visibility from observer

Set your observer location to see the next 7 days of passes ≥ 10°. The values pass through the URL so the page stays shareable.

No JS? Fill the form by hand. The geolocation button needs JavaScript.